Location: Rostock
(54.0884°N, 12.1234°E)
Time: 09:45:28
(UTC+02:00)

ISS - Pass Details

Date: 28 May 2018
Orbit: 402 x 406 km, 51.6° (Epoch: 20 June)

Event Time Altitude Azimuth Distance (km) Brightness Sun altitude
Rises 01:01:20 0° 277° (W) 2,324 0.1 -14.5°
Reaches altitude 10° 01:03:40 10° 263° (W) 1,461 -1.1 -14.5°
Enters shadow 01:05:45 22° 225° (SW) 934 -2.4 -14.5°
